Victoria, TX

11:12 PM CST on December 14, 2019 (GMT -0600)
Victoria Regional

Weather History for KVCT - October, 2019

Change the Weather History Date:

Thursday, October 10, 2019

  Actual Average Record
Temperature  
Mean Temperature 84 °F 74 °F  
Max Temperature 93 °F 85 °F 97 °F (1912)
Min Temperature 75 °F 63 °F 45 °F (1909)
Degree Days  
Heating Degree Days 0 0  
Month to date heating degree days 0 0  
Since 1 July heating degree days 0 1  
Cooling Degree Days 20 9  
Month to date cooling degree days 169 100  
Year to date cooling degree days 3434 2898  
Growing Degree Days 34 (Base 50)    
Moisture  
Dew Point 72 °F    
Average Humidity 70    
Maximum Humidity 90    
Minimum Humidity 49    
Precipitation  
Precipitation 0.00 in 0.15 in 1.79 in (2006)
Month to date precipitation 0.04 1.43  
Year to date precipitation 19.40 32.46  
Snow  
Snow 0.00 in 0.00 in 0.00 in (2002)
Month to date snowfall 0.0 0.0  
Since 1 July snowfall 0.0 0.0  
Since 1 September snowfall 0.0 0.0  
Snow Depth 0.00 in    
Sea Level Pressure  
Sea Level Pressure 29.85 in    
Wind  
Wind Speed 11 mph ()    
Max Wind Speed 24 mph    
Max Gust Speed 31 mph    
Visibility 9.9 miles    
Events      
T = Trace of Precipitation, MM = Missing Value Source: Averaged Metar Reports

Daily Weather History Graph

Daily Weather History Graph

Search for Another Location

Airport or City:

Astronomy

Oct. 10, 2019 Rise Set
Actual Time 7:25 AM CDT 7:03 PM CDT
Civil Twilight 7:01 AM CDT 7:27 PM CDT
Nautical Twilight 6:34 AM CDT 7:54 PM CDT
Astronomical Twilight 6:07 AM CDT 8:21 PM CDT
Moon 5:46 PM CDT (10/10) 4:32 AM CDT (10/10)
Length of Visible Light 12h 25m
Length of Day
11h 37m
Waxing Gibbous, 91% of the Moon is Illuminated
Oct 10
Waxing Gibbous
Oct 13
Full
Oct 21
Last Quarter
Oct 27
New
Nov 4
First Quarter

Hourly Weather History & Observations

Time (CDT) Temp. Heat Index Dew Point Humidity Pressure Visibility Wind Dir Wind Speed Gust Speed Precip Events Conditions
12:51 AM 79.0 °F - 72.0 °F 79% 29.87 in 10.0 mi SE 9.2 mph - N/A   Partly Cloudy
1:51 AM 79.0 °F - 73.0 °F 82% 29.87 in 10.0 mi SE 9.2 mph - N/A   Partly Cloudy
2:51 AM 78.1 °F - 72.0 °F 81% 29.87 in 10.0 mi SSE 9.2 mph - N/A   Partly Cloudy
3:51 AM 78.1 °F - 72.0 °F 81% 29.86 in 10.0 mi SSE 10.4 mph - N/A   Partly Cloudy
4:51 AM 77.0 °F - 72.0 °F 84% 29.86 in 10.0 mi SE 5.8 mph - N/A   Clear
5:51 AM 75.9 °F - 71.1 °F 85% 29.87 in 10.0 mi SE 6.9 mph - N/A   Clear
6:51 AM 75.0 °F - 71.1 °F 87% 29.88 in 10.0 mi SE 5.8 mph - N/A   Scattered Clouds
7:51 AM 75.0 °F - 72.0 °F 90% 29.88 in 8.0 mi SE 5.8 mph - N/A   Clear
8:51 AM 81.0 °F 85.8 °F 73.0 °F 77% 29.89 in 10.0 mi SSE 8.1 mph - N/A   Clear
9:34 AM 84.0 °F 90.2 °F 73.0 °F 69% 29.90 in 10.0 mi South 16.1 mph 23.0 mph N/A   Mostly Cloudy
9:51 AM 86.0 °F 93.0 °F 73.0 °F 65% 29.90 in 10.0 mi SSE 20.7 mph 27.6 mph N/A   Mostly Cloudy
10:04 AM 87.1 °F 94.5 °F 73.0 °F 63% 29.90 in 10.0 mi SSE 19.6 mph 26.5 mph N/A   Scattered Clouds
10:51 AM 90.0 °F 96.9 °F 72.0 °F 55% 29.90 in 10.0 mi South 21.9 mph 28.8 mph N/A   Mostly Cloudy
11:51 AM 91.9 °F 99.5 °F 72.0 °F 52% 29.88 in 10.0 mi SSE 23.0 mph - N/A   Scattered Clouds
12:51 PM 93.0 °F 100.1 °F 71.1 °F 49% 29.86 in 10.0 mi South 18.4 mph 26.5 mph N/A   Scattered Clouds
1:51 PM 93.0 °F 100.7 °F 72.0 °F 50% 29.83 in 10.0 mi South 18.4 mph 25.3 mph N/A   Scattered Clouds
2:51 PM 91.9 °F 100.7 °F 73.0 °F 54% 29.80 in 10.0 mi South 16.1 mph 26.5 mph N/A   Scattered Clouds
3:51 PM 91.9 °F 99.5 °F 72.0 °F 52% 29.79 in 10.0 mi SSE 17.3 mph 25.3 mph N/A   Partly Cloudy
4:51 PM 90.0 °F 96.9 °F 72.0 °F 55% 29.78 in 10.0 mi South 17.3 mph - N/A   Partly Cloudy
5:51 PM 88.0 °F 94.7 °F 72.0 °F 59% 29.79 in 10.0 mi SSE 17.3 mph - N/A   Partly Cloudy
6:51 PM 84.9 °F 90.7 °F 72.0 °F 65% 29.80 in 10.0 mi South 11.5 mph - N/A   Scattered Clouds
7:51 PM 82.9 °F 89.4 °F 73.9 °F 74% 29.81 in 10.0 mi SE 13.8 mph - N/A   Scattered Clouds
8:51 PM 82.0 °F 87.9 °F 73.9 °F 76% 29.82 in 10.0 mi SE 11.5 mph - N/A   Clear
9:51 PM 80.1 °F 84.5 °F 73.9 °F 81% 29.83 in 10.0 mi SE 9.2 mph - N/A   Clear
10:51 PM 80.1 °F 84.5 °F 73.9 °F 81% 29.84 in 10.0 mi SSE 9.2 mph - N/A   Clear
11:51 PM 79.0 °F - 73.9 °F 84% 29.84 in 10.0 mi SSE 8.1 mph - N/A   Clear